Blacksburg, VA

3:22 AM EDT on October 01, 2016 (GMT -0400)
Virginia Tech

Weather History for KBCB - August, 2012

Change the Weather History Date:

Wednesday, August 29, 2012

  Actual Average Record
Temperature  
Mean Temperature 71 °F 69 °F  
Max Temperature 84 °F 81 °F 94 °F (1953)
Min Temperature 58 °F 57 °F 36 °F (1986)
Degree Days  
Heating Degree Days 0 1  
Month to date heating degree days 0 4  
Since 1 June heating degree days 43 48  
Since 1 July heating degree days 0 10  
Cooling Degree Days 6 4  
Month to date cooling degree days 145 161  
Year to date cooling degree days 627 505  
Since 1 June cooling degree days 562 476  
Growing Degree Days 22 (Base 50)    
Moisture  
Dew Point 62 °F    
Average Humidity 72    
Maximum Humidity 100    
Minimum Humidity 43    
Precipitation  
Precipitation 0.00 in 0.10 in 0.95 in (1988)
Month to date precipitation 2.86 3.38  
Year to date precipitation 27.72 28.98  
Snow  
Snow 0.00 in - - ()
Month to date snowfall 0.0  
Since 1 June snowfall T  
Since 1 July snowfall T  
Snow Depth 0.00 in    
Sea Level Pressure  
Sea Level Pressure 30.09 in    
Wind  
Wind Speed 2 mph (East)    
Max Wind Speed 6 mph    
Max Gust Speed -    
Visibility 9 miles    
Events      
T = Trace of Precipitation, MM = Missing Value Source: NWS Daily Summary

Daily Weather History Graph

Daily Weather History Graph

Search for Another Location

Airport or City:

Trip Planner

Search our weather history database for the weather conditions in past years. The results will help you decide how hot, cold, wet, or windy it might be!

Date:

Astronomy

Aug. 29, 2012 Rise Set
Actual Time 6:50 AM EDT 7:53 PM EDT
Civil Twilight 6:23 AM EDT 8:20 PM EDT
Nautical Twilight 5:51 AM EDT 8:52 PM EDT
Astronomical Twilight 5:18 AM EDT 9:25 PM EDT
Moon 6:32 PM EDT (8/29) 4:45 AM EDT (8/29)
Length of Visible Light 13h 57m
Length of Day
13h 03m
Waxing Gibbous, 96% of the Moon is Illuminated
Aug 29
Waxing Gibbous
Aug 31
Full
Sep 8
Last Quarter
Sep 15
New
Sep 22
First Quarter

Hourly Weather History & Observations

Time (EDT) Temp. Heat Index Dew Point Humidity Pressure Visibility Wind Dir Wind Speed Gust Speed Precip Events Conditions
12:35 AM 69.8 °F - 66.2 °F 88% 30.08 in 10.0 mi Calm Calm - N/A   Overcast
12:55 AM 68.0 °F - 66.2 °F 94% 30.08 in 10.0 mi Calm Calm - N/A   Mostly Cloudy
1:15 AM 68.0 °F - 64.4 °F 88% 30.08 in 10.0 mi Calm Calm - N/A   Scattered Clouds
1:35 AM 66.2 °F - 64.4 °F 94% 30.07 in 10.0 mi Calm Calm - N/A   Scattered Clouds
1:55 AM 66.2 °F - 64.4 °F 94% 30.07 in 10.0 mi Calm Calm - N/A   Mostly Cloudy
2:35 AM 64.4 °F - 64.4 °F 100% 30.06 in 10.0 mi Calm Calm - N/A   Scattered Clouds
2:55 AM 64.4 °F - 64.4 °F 100% 30.05 in 10.0 mi Calm Calm - N/A   Clear
3:15 AM 62.6 °F - 62.6 °F 100% 30.06 in 10.0 mi Calm Calm - N/A   Clear
3:35 AM 62.6 °F - 62.6 °F 100% 30.06 in 10.0 mi Calm Calm - N/A   Clear
3:55 AM 62.6 °F - 62.6 °F 100% 30.05 in 10.0 mi Calm Calm - N/A   Clear
4:15 AM 62.6 °F - 62.6 °F 100% 30.06 in 10.0 mi Calm Calm - N/A   Scattered Clouds
4:35 AM 62.6 °F - 62.6 °F 100% 30.06 in 7.0 mi Calm Calm - N/A   Scattered Clouds
4:55 AM 60.8 °F - 60.8 °F 100% 30.06 in 7.0 mi Calm Calm - N/A   Clear
5:15 AM 60.8 °F - 60.8 °F 100% 30.06 in 7.0 mi Calm Calm - N/A   Clear
5:35 AM 60.8 °F - 60.8 °F 100% 30.06 in 7.0 mi Calm Calm - N/A   Clear
5:55 AM 60.8 °F - 60.8 °F 100% 30.07 in 10.0 mi Calm Calm - N/A   Clear
6:15 AM 60.8 °F - 60.8 °F 100% 30.07 in 10.0 mi Calm Calm - N/A   Clear
6:35 AM 60.8 °F - 60.8 °F 100% 30.08 in 7.0 mi Calm Calm - N/A   Scattered Clouds
6:55 AM 60.8 °F - 60.8 °F 100% 30.09 in 5.0 mi Calm Calm - N/A   Scattered Clouds
7:15 AM 60.8 °F - 60.8 °F 100% 30.09 in 4.0 mi Calm Calm - N/A   Scattered Clouds
7:35 AM 60.8 °F - 60.8 °F 100% 30.10 in 5.0 mi Calm Calm - N/A   Clear
7:55 AM 64.4 °F - 64.4 °F 100% 30.11 in 7.0 mi Calm Calm - N/A   Clear
8:15 AM 66.2 °F - 64.4 °F 94% 30.11 in 10.0 mi Calm Calm - N/A   Clear
8:35 AM 69.8 °F - 64.4 °F 83% 30.12 in 10.0 mi Calm Calm - N/A   Clear
8:55 AM 71.6 °F - 64.4 °F 78% 30.12 in 10.0 mi Calm Calm - N/A   Clear
9:15 AM 73.4 °F - 64.4 °F 73% 30.12 in 10.0 mi Calm Calm - N/A   Clear
9:35 AM 75.2 °F - 62.6 °F 65% 30.12 in 10.0 mi Calm Calm - N/A   Clear
9:55 AM 75.2 °F - 62.6 °F 65% 30.12 in 10.0 mi East 3.5 mph - N/A   Clear
10:15 AM 75.2 °F - 62.6 °F 65% 30.12 in 10.0 mi Calm Calm - N/A   Clear
10:35 AM 77.0 °F - 64.4 °F 65% 30.12 in 10.0 mi ESE 5.8 mph - N/A   Clear
10:55 AM 78.8 °F - 62.6 °F 57% 30.13 in 10.0 mi Calm Calm - N/A   Clear
11:15 AM 78.8 °F - 60.8 °F 54% 30.13 in 10.0 mi NNW 3.5 mph - N/A   Clear
11:35 AM 78.8 °F - 62.6 °F 57% 30.13 in 10.0 mi Calm Calm - N/A   Clear
11:55 AM 80.6 °F 81.5 °F 60.8 °F 51% 30.12 in 10.0 mi East 3.5 mph - N/A   Scattered Clouds
12:15 PM 80.6 °F 81.5 °F 60.8 °F 51% 30.12 in 10.0 mi Calm Calm - N/A   Scattered Clouds
12:35 PM 80.6 °F 81.5 °F 60.8 °F 51% 30.12 in 10.0 mi Calm Calm - N/A   Scattered Clouds
12:55 PM 80.6 °F 81.5 °F 60.8 °F 51% 30.11 in 10.0 mi SW 4.6 mph - N/A   Scattered Clouds
1:15 PM 82.4 °F 82.9 °F 60.8 °F 48% 30.11 in 10.0 mi SSW 3.5 mph - N/A   Mostly Cloudy
1:35 PM 82.4 °F 83.4 °F 62.6 °F 51% 30.10 in 10.0 mi NE 3.5 mph - N/A   Scattered Clouds
1:55 PM 82.4 °F 82.9 °F 60.8 °F 48% 30.10 in 10.0 mi NNW 3.5 mph - N/A   Scattered Clouds
2:15 PM 82.4 °F 82.9 °F 60.8 °F 48% 30.09 in 10.0 mi WNW 3.5 mph - N/A   Scattered Clouds
2:35 PM 82.4 °F 83.4 °F 62.6 °F 51% 30.09 in 10.0 mi NNW 8.1 mph - N/A   Scattered Clouds
2:55 PM 82.4 °F 82.9 °F 60.8 °F 48% 30.08 in 10.0 mi NE 3.5 mph - N/A   Mostly Cloudy
3:15 PM 82.4 °F 82.9 °F 60.8 °F 48% 30.07 in 10.0 mi Calm Calm - N/A   Mostly Cloudy
3:35 PM 82.4 °F 82.9 °F 60.8 °F 48% 30.07 in 10.0 mi Calm Calm - N/A   Scattered Clouds
3:55 PM 82.4 °F 82.5 °F 59.0 °F 45% 30.06 in 10.0 mi Calm Calm - N/A   Scattered Clouds
4:15 PM 82.4 °F 82.0 °F 57.2 °F 42% 30.06 in 10.0 mi Calm Calm - N/A   Clear
4:35 PM 82.4 °F 82.0 °F 57.2 °F 42% 30.06 in 10.0 mi Calm Calm - N/A   Clear
4:55 PM 82.4 °F 82.0 °F 57.2 °F 42% 30.06 in 10.0 mi Calm Calm - N/A   Clear
5:15 PM 84.2 °F 83.5 °F 57.2 °F 40% 30.06 in 10.0 mi NE 3.5 mph - N/A   Scattered Clouds
5:35 PM 84.2 °F 84.4 °F 60.8 °F 45% 30.06 in 10.0 mi ESE 3.5 mph - N/A   Scattered Clouds
5:55 PM 82.4 °F 82.9 °F 60.8 °F 48% 30.06 in 10.0 mi ENE 4.6 mph - N/A   Scattered Clouds
6:15 PM 82.4 °F 82.9 °F 60.8 °F 48% 30.06 in 10.0 mi East 4.6 mph - N/A   Mostly Cloudy
6:35 PM 80.6 °F 81.5 °F 60.8 °F 51% 30.06 in 3.0 mi ESE 3.5 mph - N/A   Haze
6:55 PM 78.8 °F - 60.8 °F 54% 30.06 in 1.8 mi East 3.5 mph - N/A   Haze
7:15 PM 80.6 °F 81.5 °F 60.8 °F 51% 30.06 in 10.0 mi East 3.5 mph - N/A   Scattered Clouds
7:35 PM 77.0 °F - 62.6 °F 61% 30.06 in 4.0 mi ESE 4.6 mph - N/A   Haze
7:55 PM 75.2 °F - 64.4 °F 69% 30.07 in 3.0 mi ESE 5.8 mph - N/A   Haze
8:15 PM 73.4 °F - 64.4 °F 73% 30.07 in 10.0 mi SE 4.6 mph - N/A   Scattered Clouds
8:35 PM 73.4 °F - 64.4 °F 73% 30.08 in 10.0 mi Calm Calm - N/A   Clear
8:55 PM 73.4 °F - 64.4 °F 73% 30.09 in 10.0 mi South 3.5 mph - N/A   Mostly Cloudy
9:15 PM 71.6 °F - 64.4 °F 78% 30.10 in 10.0 mi North 3.5 mph - N/A   Scattered Clouds
9:55 PM 69.8 °F - 64.4 °F 83% 30.11 in - Calm Calm - N/A   Unknown
10:15 PM 69.8 °F - 66.2 °F 88% 30.11 in - Calm Calm - N/A   Unknown
10:35 PM 68.0 °F - 66.2 °F 94% 30.12 in 3.0 mi Calm Calm - N/A   Mist
10:55 PM 68.0 °F - 66.2 °F 94% 30.12 in 10.0 mi Calm Calm - N/A   Mostly Cloudy
11:35 PM 68.0 °F - 66.2 °F 94% 30.12 in 10.0 mi Calm Calm - N/A   Clear
11:55 PM 66.2 °F - 66.2 °F 100% 30.12 in 10.0 mi Calm Calm - N/A   Scattered Clouds